Flag for Canada Weather past 2 weeks in Saint John, New Brunswick, Canada

Now
9 °F

Mostly cloudy.


Feels Like: -11 °F
Forecast: 9 / 22 °F
Wind: 20 mph from Northeast

Location: Saint John

Current Time: Jan 27, 2015 at 4:44:55 AM

Latest Report: Jan 27, 2015 at 4:00 AM


Visibility: 15 mi

Pressure: 30.14 "Hg

Humidity: 72%

Dew point: 1 °F

Location of Saint JohnLocation

Historic Weather in Saint John — Graph

°F

Saint John temperature yesterday

Maximum temperature yesterday: 12 °F (at 2:00 PM)
Minimum temperature yesterday: 1 °F (at 8:00 AM)
Average temperature yesterday: 7 °F

Past Weeks' High & Low Weather Summary

 TemperatureHumidityPressure
High45 °F (Jan 19, 7:00 AM)100% (Jan 12, 8:00 PM)30.64 "Hg (Jan 12, 8:00 PM)
Low-15 °F (Jan 14, 8:00 AM)39% (Jan 17, 4:00 PM)28.76 "Hg (Jan 25, 12:47 AM)
Average18 °F74%29.96 "Hg
* Reported Jan 12 3:00 AM — Jan 27 3:00 AM, Saint John, Weather by CustomWeather, © 2014

Note: Actual official high and low records may vary slightly from our data, if they occured in-between our weather recording intervals... More about our weather records

Advertising

Saint John weather history for previous 24 hours

 ConditionsComfort  
Time TempWeatherWind HumidityBarometerVisibility
3:00 AM
Jan 27
10 °FMostly cloudy.20 mph67%30.20 "Hg15 mi
2:00 AM9 °FMostly cloudy.15 mph72%30.22 "Hg15 mi
1:00 AM9 °FOvercast.15 mph72%30.24 "Hg15 mi
12:00 AM9 °FOvercast.12 mph72%30.29 "Hg15 mi
11:00 PM
Jan 26
9 °FOvercast.13 mph66%30.29 "Hg15 mi
10:00 PM7 °FOvercast.12 mph78%30.31 "Hg15 mi
9:00 PM7 °FOvercast.12 mph72%30.32 "Hg15 mi
8:00 PM7 °FPassing clouds.9 mph78%30.32 "Hg15 mi
7:00 PM7 °FPassing clouds.5 mph72%30.28 "Hg15 mi
6:00 PM7 °FPassing clouds.6 mph72%30.26 "Hg15 mi
5:00 PM9 °FPartly sunny.7 mph66%30.24 "Hg15 mi
4:00 PM12 °FPartly sunny.10 mph52%30.21 "Hg15 mi
3:00 PM12 °FPartly sunny.10 mph48%30.20 "Hg15 mi
2:00 PM12 °FPartly sunny.6 mph48%30.22 "Hg15 mi
1:00 PM10 °FPartly sunny.5 mph56%30.22 "Hg15 mi
12:00 PM9 °FPartly sunny.10 mph56%30.22 "Hg15 mi
11:00 AM7 °FScattered clouds.10 mph56%30.22 "Hg15 mi
10:00 AM5 °FPassing clouds.12 mph55%30.18 "Hg15 mi
9:00 AM3 °FPassing clouds.10 mph60%30.15 "Hg15 mi
8:00 AM1 °FPassing clouds.9 mph65%30.12 "Hg15 mi
7:00 AM3 °FPassing clouds.8 mph60%30.08 "Hg15 mi
6:00 AM3 °FClear.10 mph66%30.03 "Hg15 mi
5:00 AM5 °FClear.16 mph60%30.00 "Hg15 mi
4:00 AM5 °FClear.18 mph66%29.96 "Hg15 mi
Weather by CustomWeather, © 2014

See weather overviewHow to use our weather pages